• In Netherlands
  • List of Countries
  • For 7 days
  • Water Temperature
  • Satellite Maps
  • Weather Map
  • Weather Widgets
  • user-avatar
    Login

    Hourly Weather Igls

    Today, 19 January, Friday

    Time Temperature Precipitation Wind Pressure Humidity
    00:00 +3°C° 0.4 mm 2 mps 676 mmHg 88%
    01:00 +3°C° 0 mm 2 mps 676 mmHg 91%
    02:00 +3°C° 1.1 mm 2 mps 676 mmHg 92%
    03:00 +3°C° 1.1 mm 2 mps 675 mmHg 93%
    04:00 +3°C° 1.1 mm 2 mps 675 mmHg 93%
    05:00 +2°C° 1.6 mm 2 mps 676 mmHg 94%
    06:00 +2°C° 1.6 mm 2 mps 676 mmHg 94%
    07:00 +2°C° 1.6 mm 2 mps 676 mmHg 95%
    08:00 +2°C° 1.1 mm 2 mps 676 mmHg 95%
    09:00 +2°C° 1.1 mm 2 mps 677 mmHg 95%
    10:00 +1°C° 1.1 mm 3 mps 677 mmHg 95%
    11:00 0°C° 0.6 mm 3 mps 678 mmHg 93%
    12:00 0°C° 0.6 mm 3 mps 678 mmHg 91%
    13:00 0°C° 0.6 mm 3 mps 678 mmHg 89%
    14:00 +1°C° 0.3 mm 2 mps 678 mmHg 89%
    15:00 -1°C° 0.3 mm 2 mps 678 mmHg 90%
    16:00 -1°C° 0.3 mm 2 mps 679 mmHg 91%
    17:00 -2°C° 0.3 mm 2 mps 679 mmHg 91%
    18:00 -3°C° 0.3 mm 2 mps 679 mmHg 91%
    19:00 -4°C° 0.3 mm 2 mps 679 mmHg 92%
    20:00 -4°C° 0.2 mm 2 mps 679 mmHg 90%
    21:00 -3°C° 0.2 mm 1 mps 679 mmHg 89%
    22:00 -3°C° 0.2 mm 1 mps 679 mmHg 88%
    23:00 -3°C° 0.3 mm 1 mps 679 mmHg 88%

    Tomorrow, 20 January, Saturday

    Time Temperature Precipitation Wind Pressure Humidity
    00:00 -5°C° 0.3 mm 2 mps 679 mmHg 88%
    01:00 -5°C° 0.3 mm 2 mps 680 mmHg 88%
    02:00 -4°C° 0.4 mm 2 mps 680 mmHg 90%
    03:00 -4°C° 0.4 mm 2 mps 680 mmHg 92%
    04:00 -4°C° 0.4 mm 2 mps 680 mmHg 93%
    05:00 -4°C° 0.1 mm 2 mps 680 mmHg 92%
    06:00 -4°C° 0.1 mm 2 mps 679 mmHg 91%
    07:00 -5°C° 0.1 mm 2 mps 679 mmHg 90%
    08:00 -4°C° 0.2 mm 2 mps 679 mmHg 89%
    09:00 -3°C° 0.2 mm 2 mps 679 mmHg 88%
    10:00 -3°C° 0.2 mm 2 mps 679 mmHg 87%
    11:00 -2°C° 0.2 mm 2 mps 679 mmHg 83%
    12:00 -1°C° 0.2 mm 2 mps 678 mmHg 79%
    13:00 +1°C° 0.2 mm 2 mps 678 mmHg 75%
    14:00 -1°C° 0 mm 2 mps 677 mmHg 79%
    15:00 -1°C° 0 mm 2 mps 676 mmHg 83%
    16:00 -1°C° 0 mm 2 mps 676 mmHg 86%
    17:00 -2°C° 0.4 mm 2 mps 675 mmHg 88%
    18:00 -2°C° 0.4 mm 2 mps 675 mmHg 90%
    19:00 -3°C° 0.4 mm 2 mps 674 mmHg 91%
    20:00 -3°C° 1.2 mm 2 mps 674 mmHg 93%
    21:00 -3°C° 1.2 mm 2 mps 674 mmHg 94%
    22:00 -3°C° 1.2 mm 2 mps 674 mmHg 95%
    23:00 -2°C° 1.1 mm 2 mps 674 mmHg 95%

    Day after tomorrow, 21 January, Sunday

    Time Temperature Precipitation Wind Pressure Humidity
    00:00 -2°C° 1.1 mm 2 mps 675 mmHg 95%
    01:00 -2°C° 1.1 mm 2 mps 675 mmHg 96%
    02:00 -1°C° 1 mm 2 mps 675 mmHg 96%
    03:00 -1°C° 1 mm 2 mps 675 mmHg 96%
    04:00 -1°C° 1 mm 2 mps 675 mmHg 96%
    05:00 -1°C° 1.4 mm 2 mps 676 mmHg 96%
    06:00 -1°C° 1.4 mm 2 mps 676 mmHg 96%
    07:00 +1°C° 1.4 mm 2 mps 676 mmHg 96%
    08:00 -1°C° 1.4 mm 2 mps 677 mmHg 96%
    09:00 -1°C° 1.4 mm 2 mps 677 mmHg 96%
    10:00 -1°C° 1.4 mm 2 mps 678 mmHg 96%
    11:00 -1°C° 1.5 mm 2 mps 678 mmHg 96%
    12:00 -1°C° 1.5 mm 2 mps 678 mmHg 96%
    13:00 -1°C° 1.5 mm 2 mps 678 mmHg 96%
    14:00 +1°C° 1.6 mm 1 mps 678 mmHg 96%
    15:00 +1°C° 1.6 mm 1 mps 679 mmHg 96%
    16:00 +1°C° 1.6 mm 1 mps 679 mmHg 96%
    17:00 +1°C° 1.1 mm 1 mps 679 mmHg 96%
    18:00 +1°C° 1.1 mm 1 mps 680 mmHg 96%
    19:00 0°C° 1.1 mm 1 mps 680 mmHg 95%
    20:00 +1°C° 1.5 mm 1 mps 680 mmHg 96%
    21:00 +1°C° 1.5 mm 1 mps 680 mmHg 96%
    22:00 +1°C° 1.5 mm 1 mps 681 mmHg 96%
    23:00 +2°C° 2.3 mm 1 mps 681 mmHg 96%

    22 January, Monday

    Time Temperature Precipitation Wind Pressure Humidity
    00:00 +2°C° 2.3 mm 1 mps 681 mmHg 96%
    01:00 +3°C° 2.3 mm 1 mps 681 mmHg 96%
    02:00 +3°C° 3.1 mm 1 mps 681 mmHg 97%
    03:00 +4°C° 3.1 mm 1 mps 681 mmHg 97%
    04:00 +4°C° 3.1 mm 1 mps 681 mmHg 97%
    05:00 +4°C° 2.7 mm 1 mps 681 mmHg 97%
    06:00 +5°C° 2.7 mm 1 mps 681 mmHg 97%
    07:00 +5°C° 2.7 mm 1 mps 681 mmHg 97%
    08:00 +5°C° 2 mm 2 mps 681 mmHg 97%
    09:00 +5°C° 2 mm 2 mps 681 mmHg 97%
    10:00 +5°C° 2 mm 2 mps 681 mmHg 97%
    11:00 +6°C° 2.1 mm 2 mps 681 mmHg 98%
    12:00 +6°C° 2.1 mm 2 mps 681 mmHg 98%
    13:00 +6°C° 2.1 mm 2 mps 680 mmHg 99%
    14:00 +6°C° 0.3 mm 2 mps 680 mmHg 98%
    15:00 +6°C° 0.3 mm 2 mps 680 mmHg 98%
    16:00 +6°C° 0.3 mm 2 mps 680 mmHg 98%
    17:00 +6°C° 0.4 mm 2 mps 681 mmHg 97%
    18:00 +6°C° 0.4 mm 2 mps 681 mmHg 97%
    19:00 +5°C° 0.4 mm 3 mps 681 mmHg 96%
    20:00 +6°C° 1.1 mm 2 mps 682 mmHg 96%
    21:00 +6°C° 1.1 mm 2 mps 682 mmHg 96%
    22:00 +6°C° 1.1 mm 2 mps 683 mmHg 96%
    23:00 +5°C° 1.2 mm 2 mps 683 mmHg 96%

    23 January, Tuesday

    Time Temperature Precipitation Wind Pressure Humidity
    00:00 +5°C° 1.2 mm 2 mps 684 mmHg 97%
    01:00 +5°C° 1.2 mm 2 mps 684 mmHg 97%
    02:00 +5°C° 0.5 mm 2 mps 684 mmHg 97%
    03:00 +5°C° 0.5 mm 2 mps 685 mmHg 97%
    04:00 +5°C° 0.5 mm 2 mps 685 mmHg 97%
    05:00 +4°C° 0.2 mm 2 mps 685 mmHg 97%
    06:00 +4°C° 0.2 mm 2 mps 686 mmHg 97%
    07:00 +4°C° 0.2 mm 2 mps 686 mmHg 97%
    08:00 +4°C° 0.1 mm 2 mps 687 mmHg 96%
    09:00 +4°C° 0.1 mm 2 mps 687 mmHg 96%
    10:00 +5°C° 0.1 mm 2 mps 688 mmHg 96%
    11:00 +5°C° 0 mm 2 mps 688 mmHg 97%
    12:00 +5°C° 0 mm 2 mps 688 mmHg 98%
    13:00 +5°C° 0 mm 2 mps 688 mmHg 99%
    14:00 +5°C° 0 mm 2 mps 688 mmHg 98%
    15:00 +5°C° 0 mm 2 mps 688 mmHg 97%
    16:00 +5°C° 0 mm 2 mps 688 mmHg 96%
    17:00 +4°C° 0 mm 2 mps 689 mmHg 89%
    18:00 +2°C° 0 mm 2 mps 689 mmHg 83%
    19:00 +1°C° 0 mm 2 mps 689 mmHg 76%
    20:00 +1°C° 0 mm 2 mps 689 mmHg 72%
    21:00 +2°C° 0 mm 2 mps 690 mmHg 68%
    22:00 +2°C° 0 mm 2 mps 690 mmHg 64%
    23:00 +2°C° 0 mm 2 mps 690 mmHg 65%

    24 January, Wednesday

    Time Temperature Precipitation Wind Pressure Humidity
    00:00 +1°C° 0 mm 2 mps 690 mmHg 66%
    01:00 +1°C° 0 mm 2 mps 690 mmHg 67%
    02:00 +1°C° 0 mm 2 mps 690 mmHg 68%
    03:00 +1°C° 0 mm 2 mps 690 mmHg 70%
    04:00 +2°C° 0 mm 1 mps 690 mmHg 72%
    05:00 +2°C° 0 mm 1 mps 690 mmHg 71%
    06:00 +2°C° 0 mm 1 mps 690 mmHg 71%
    07:00 +2°C° 0 mm 1 mps 690 mmHg 70%
    08:00 +4°C° 0 mm 1 mps 690 mmHg 73%
    09:00 +5°C° 0 mm 1 mps 690 mmHg 75%
    10:00 +7°C° 0 mm 1 mps 690 mmHg 78%
    11:00 +7°C° 0 mm 1 mps 690 mmHg 84%
    12:00 +8°C° 0 mm 1 mps 690 mmHg 90%
    13:00 +8°C° 0 mm 1 mps 689 mmHg 96%
    14:00 +8°C° 0 mm 1 mps 689 mmHg 94%
    15:00 +7°C° 0 mm 1 mps 689 mmHg 91%
    16:00 +7°C° 0 mm 1 mps 689 mmHg 88%
    17:00 +6°C° 0 mm 1 mps 689 mmHg 84%
    18:00 +4°C° 0 mm 2 mps 689 mmHg 79%
    19:00 +3°C° 0 mm 2 mps 689 mmHg 74%
    20:00 +3°C° 0 mm 2 mps 689 mmHg 72%
    21:00 +3°C° 0 mm 2 mps 689 mmHg 70%
    22:00 +2°C° 0 mm 2 mps 689 mmHg 68%
    23:00 +2°C° 0 mm 2 mps 689 mmHg 68%
    Show more